DECAYED

SL-4 DEB, 68755 (Decayed)

Orbit data source: Space-Track

SL-4 DEB, 68755 was space debris in SSO originally from a launch on Thu, 16 Apr 2026 UTC launched from the Plesetsk Missile And Space Complex (PKMTR). Debris objects in space refer to the collection of defunct objects orbiting the Earth. Examples of debris include non-operational satellites, rocket bodies, and fragments generated from explosions, collisions, or faulty payload assembly.

Not visible in the next 10 days
Identifier
68755, 2026-083C
Orbit
Decayed
Country
Flag of CISCIS
Related business
Manufacturer
TsSKB-Progress
Mission
Decayed spacecraft
Bus & Motor
BLOK-I, Unknown motor
Mass
Unknown
Launch date (UTC)
2026-04-16 (1 month ago)
Launch vehicle
Unknown
Launch site
Plesetsk Missile And Space Complex (PKMTR)
Object type
Payload
Rocket body
Debris
Shape & HBR
Unknown shape, 1.1 m
Radar Cross Section
RCS unknown

Expand to show TLE details & history
Last TLE update: 1 month ago

TLE from 1 month ago
0 SL-4 DEB
1 68755U 26083C   26108.35291177  .22174759  36165-5  21653-2 0  9994
2 68755  98.2527 253.8385 0170194  68.7663 293.1699 16.05765192   223
Epoch: 2026-04-18T08:28Z
TLE epoch observation values (Epoch: 2026-04-18T08:28:11.576Z)
Latitude
-0.00005°
Longitude
-79.6827°
Altitude
218.855 km
Speed
7.8 km/s
True Right ascension
16h 55m 21s
True Declination
0° 00' 00"
Sunlit
Object was in full shadow at epoch
Visualization orbit readout
Latitude
Unknown
Longitude
Unknown
Altitude
Unknown
Speed
Unknown
Apparent Right ascension
Unknown
Apparent Declination
Unknown
Sunlit
N/A
Visualization observer readout
Local Sidereal Time
10:08:05
Azimuth
Unknown
Elevation
Unknown
Doppler factor
Unknown
Orbital elements
Apogee altitude
368.275 km
Perigee altitude
142.478 km
Semi-major axis
6,633.514 km
Eccentricity
0.01702
Inclination
98.2527°
RAAN
253.8385°
Arg. of periapsis
68.7663°
True anomaly
291.3621°
Mean anomaly
293.1699°
Eccentric anomaly
292.26748°
Mean motion
4.01724 °/min
Orbital period
89.61 mins
BSTAR
0.0021653
Loading maneuver chart data...
Computing Atmospheric mass density...
Loading historical data...
Loading historical data...
Loading historical data...
Loading historical data...
Loading historical data...
Loading historical data...
Loading historical data...

Documentation

Showing up to 5 results
|